Location: *
(35.8942°N, 23.3025°E)
Time: 23:41:23
(UTC+00:00)

CZ-4C R/B - Pass Details

Date: 21 September 2021
Orbit: 600 x 1402 km, 63.4° (Epoch: 22 October)

Event Time Altitude Azimuth Distance (km) Brightness Sun altitude
Exits shadow 03:25:35 14° 252° (WSW) 1,866 3.4 -10.6°
Maximum altitude 03:29:09 33° 312° (NW) 1,229 2.8 -9.9°
Drops below altitude 10° 03:34:09 10° 16° (NNE) 2,464 4.9 -8.9°
Sets 03:37:08 0° 25° (NNE) 3,546 5.9 -8.3°
